Location: Apalco
(33.3585°N, 93.4602°W)
Time: 20:15:42
(UTC+00:00)

Envisat - Pass Details

Date: 07 October 2021
Orbit: 764 x 766 km, 98.2° (Epoch: 27 October)

Event Time Altitude Azimuth Distance (km) Brightness Sun altitude
Rises 11:33:52 0° 8° (N) 3,234 6.3 -8.9°
Reaches altitude 10° 11:36:12 10° 5° (N) 2,304 5.5 -8.4°
Maximum altitude 11:41:12 62° 285° (WNW) 858 3.0 -7.4°
Drops below altitude 10° 11:46:11 10° 206° (SSW) 2,291 5.2 -6.3°
Sets 11:48:29 0° 202° (SSW) 3,213 6.0 -5.9°
